Regional Weather Roundup
Issued by NWS State College, PA

Home | Current Version | Previous Version | Text Only | Print | Product List | Glossary On
Versions: 1 2 3 4 5 6 7 8 9 10 11 12 13 14 15 16 17 18 19 20 21 22 23 24 25 26 27 28 29 30 31 32 33 34 35 36 37 38 39 40 41 42 43 44 45 46 47 48 49 50
000
ASUS41 KCTP 200310
RWRCTP

REGIONAL WEATHER ROUNDUP
NATIONAL WEATHER SERVICE STATE COLLEGE PA
1000 PM EST FRI DEC 19 2014

Note: "fair" indicates few or no clouds below 12,000 feet with no
significant weather and/or obstructions to visibility.

* = STATION THAT DOES NOT REPORT PRECIPITATION /E.G. RAIN...SNOW...ETC/
    THUNDER OR FOG.

PAZ002>004-007>009-013>016-020>023-029>032-200400-
WESTERN PENNSYLVANIA

CITY           SKY/WX    TMP DP  RH WIND       PRES   REMARKS
ERIE           CLOUDY    31  23  72 NW9       30.28F
MEADVILLE      CLOUDY    27  18  69 W5        30.24F
FRANKLIN*      CLOUDY    25  16  68 CALM      30.26S
NEW CASTLE       N/A     28  19  69 N7        30.28F
BEAVER COUNTY  NOT AVBL
BUTLER*        CLOUDY    28  19  69 CALM      30.26F
PITTSBURGH INT CLOUDY    29  21  72 NW6       30.25F
PITTSBURGH     CLOUDY    29  18  63 NW3       30.24F
INDIANA*       CLOUDY    28  19  69 NW6       30.28S
LATROBE        CLOUDY   N/A N/A N/A NW7       30.28S
WASHINGTON CO* NOT AVBL
$$

PAZ004>006-010>012-017>019-024>028-033>037-041-042-045-046-049>053-200400-
CENTRAL PENNSYLVANIA

CITY           SKY/WX    TMP DP  RH WIND       PRES   REMARKS
BRADFORD       CLOUDY    22  17  81 NW7       30.19R WCI  13
DUBOIS         CLOUDY    23  19  85 NW5       30.22R
CLEARFIELD     CLOUDY    25  18  74 NW9       30.23R
JOHNSTOWN      CLOUDY    24  17  74 NW16      30.17S WCI  11
ALTOONA        PTCLDY    26  18  71 NW9       30.22R
STATE COLLEGE  CLEAR     28  19  68 NW9       30.22R
WILLIAMSPORT   CLOUDY    33  19  56 NW10      30.22R
SELINSGROVE    CLOUDY    33  21  61 W7        30.24R
FT INDIANTOWN  CLEAR     33  20  59 W9        30.21R
CAPITAL CITY   PTCLDY    31  20  63 W7        30.23R
HARRISBURG     MOCLDY    31  22  69 NW9       30.22R
YORK           PTCLDY    29  20  69 W6        30.22R
$$

PAZ038>040-043-044-047-048-054-055-060>062-067>071-200400-
EASTERN PENNSYLVANIA

CITY           SKY/WX    TMP DP  RH WIND       PRES   REMARKS
SCRANTON       CLOUDY    29  21  72 NW9       30.17R
MOUNT POCONO   CLOUDY    24  19  81 NW16G23   30.08R WCI  11
ALLENTOWN      CLOUDY    34  21  60 NW9       30.19R
QUAKERTOWN*    CLOUDY    32  21  64 NW8       30.18S
READING        CLOUDY    34  21  59 NW9       30.20R
LANCASTER      MOCLDY    29  21  72 W6        30.20S
COATESVILLE    CLOUDY    32  25  74 NW8       30.19R
POTTSTOWN      CLOUDY    32  21  64 NW8       30.20S
BLUE BELL      CLOUDY    34  23  64 NW3       30.19R
DOYLESTOWN     CLOUDY    30  21  69 NW7       30.18R
WILLOW GROVE   NOT AVBL
NORTH PHILA    MOCLDY    32  19  58 NW6       30.21S
PHILADELPHIA   MOCLDY    34  21  59 N7        30.22R
$$



USA.gov is the U.S. government's official web portal to all federal, state and local government web resources and services.